When you browse on this site, cookies collect data to enhance your experience and personalize the content and advertising you see.
Visit our Privacy Policy to learn more. By continuing to use the site, you agree to this use of cookies and data.

Hourly Weather Kodyakovka

Today, 14 July, Tuesday

Time Temperature Precipitation Wind Pressure Humidity
00:00 +27°C° 0 mm 5 mps 748 mmHg 58%
01:00 +26°C° 0 mm 5 mps 748 mmHg 61%
02:00 +25°C° 0 mm 4 mps 748 mmHg 64%
03:00 +23°C° 0 mm 4 mps 748 mmHg 66%
04:00 +24°C° 0 mm 3 mps 748 mmHg 78%
05:00 +25°C° 0 mm 3 mps 748 mmHg 75%
06:00 +26°C° 0 mm 3 mps 748 mmHg 71%
07:00 +28°C° 0 mm 3 mps 748 mmHg 68%
08:00 +29°C° 0 mm 4 mps 748 mmHg 63%
09:00 +32°C° 0 mm 5 mps 749 mmHg 59%
10:00 +34°C° 0 mm 5 mps 749 mmHg 52%
11:00 +35°C° 0 mm 5 mps 749 mmHg 45%
12:00 +36°C° 0 mm 5 mps 749 mmHg 38%
13:00 +39°C° 0 mm 5 mps 749 mmHg 30%
14:00 +39°C° 0 mm 5 mps 749 mmHg 30%
15:00 +39°C° 0 mm 5 mps 749 mmHg 29%
16:00 +40°C° 0 mm 5 mps 749 mmHg 29%
17:00 +37°C° 0 mm 5 mps 749 mmHg 34%
18:00 +36°C° 0 mm 4 mps 748 mmHg 38%
19:00 +35°C° 0 mm 4 mps 748 mmHg 43%
20:00 +33°C° 0 mm 4 mps 748 mmHg 44%
21:00 +32°C° 0 mm 4 mps 748 mmHg 45%
22:00 +30°C° 0 mm 4 mps 748 mmHg 46%
23:00 +29°C° 0 mm 4 mps 748 mmHg 46%

Tomorrow, 15 July, Wednesday

Time Temperature Precipitation Wind Pressure Humidity
00:00 +28°C° 0 mm 4 mps 748 mmHg 47%
01:00 +28°C° 0 mm 5 mps 748 mmHg 47%
02:00 +27°C° 0 mm 5 mps 748 mmHg 46%
03:00 +26°C° 0 mm 5 mps 748 mmHg 45%
04:00 +25°C° 0 mm 5 mps 748 mmHg 45%
05:00 +26°C° 0 mm 5 mps 748 mmHg 45%
06:00 +26°C° 0 mm 5 mps 748 mmHg 46%
07:00 +27°C° 0 mm 6 mps 748 mmHg 46%
08:00 +29°C° 0 mm 6 mps 748 mmHg 42%
09:00 +32°C° 0 mm 6 mps 748 mmHg 38%
10:00 +34°C° 0 mm 6 mps 748 mmHg 34%
11:00 +35°C° 0 mm 7 mps 748 mmHg 31%
12:00 +38°C° 0 mm 7 mps 748 mmHg 28%
13:00 +39°C° 0 mm 7 mps 748 mmHg 25%
14:00 +40°C° 0 mm 6 mps 748 mmHg 23%
15:00 +41°C° 0 mm 5 mps 748 mmHg 21%
16:00 +41°C° 0 mm 4 mps 748 mmHg 19%
17:00 +38°C° 0 mm 4 mps 747 mmHg 28%
18:00 +36°C° 0 mm 4 mps 747 mmHg 37%
19:00 +34°C° 0 mm 4 mps 747 mmHg 46%
20:00 +32°C° 0 mm 4 mps 747 mmHg 51%
21:00 +29°C° 0 mm 3 mps 748 mmHg 57%
22:00 +27°C° 0 mm 3 mps 748 mmHg 62%
23:00 +27°C° 0 mm 2 mps 748 mmHg 62%

Day after tomorrow, 16 July, Thursday

Time Temperature Precipitation Wind Pressure Humidity
00:00 +26°C° 0 mm 2 mps 748 mmHg 63%
01:00 +26°C° 0 mm 2 mps 747 mmHg 63%
02:00 +25°C° 0 mm 2 mps 747 mmHg 62%
03:00 +25°C° 0 mm 2 mps 747 mmHg 60%
04:00 +24°C° 0 mm 1 mps 747 mmHg 59%
05:00 +25°C° 0 mm 2 mps 747 mmHg 58%
06:00 +26°C° 0 mm 2 mps 747 mmHg 57%
07:00 +26°C° 0 mm 2 mps 747 mmHg 57%
08:00 +28°C° 0 mm 2 mps 747 mmHg 50%
09:00 +30°C° 0 mm 2 mps 747 mmHg 44%
10:00 +31°C° 0 mm 2 mps 747 mmHg 38%
11:00 +34°C° 0 mm 2 mps 747 mmHg 35%
12:00 +35°C° 0 mm 2 mps 747 mmHg 33%
13:00 +36°C° 0 mm 3 mps 747 mmHg 30%
14:00 +36°C° 0 mm 3 mps 747 mmHg 31%
15:00 +36°C° 0 mm 3 mps 746 mmHg 33%
16:00 +36°C° 0 mm 3 mps 746 mmHg 34%
17:00 +35°C° 0 mm 2 mps 746 mmHg 38%
18:00 +34°C° 0 mm 2 mps 746 mmHg 42%
19:00 +32°C° 0 mm 1 mps 746 mmHg 46%
20:00 +30°C° 0 mm 1 mps 746 mmHg 51%
21:00 +29°C° 0 mm 2 mps 746 mmHg 55%
22:00 +27°C° 0 mm 2 mps 746 mmHg 59%
23:00 +26°C° 0.2 mm 3 mps 746 mmHg 66%

17 July, Friday

Time Temperature Precipitation Wind Pressure Humidity
00:00 +25°C° 0.2 mm 4 mps 746 mmHg 73%
01:00 +23°C° 0.2 mm 5 mps 746 mmHg 80%
02:00 +23°C° 0 mm 4 mps 746 mmHg 81%
03:00 +23°C° 0 mm 4 mps 746 mmHg 81%
04:00 +22°C° 0 mm 4 mps 746 mmHg 82%
05:00 +23°C° 0 mm 4 mps 746 mmHg 79%
06:00 +24°C° 0 mm 3 mps 746 mmHg 76%
07:00 +25°C° 0 mm 3 mps 746 mmHg 72%
08:00 +26°C° 0 mm 3 mps 746 mmHg 68%
09:00 +27°C° 0 mm 3 mps 746 mmHg 63%
10:00 +28°C° 0 mm 3 mps 746 mmHg 59%
11:00 +29°C° 0 mm 2 mps 746 mmHg 56%
12:00 +30°C° 0 mm 2 mps 746 mmHg 54%
13:00 +30°C° 0 mm 2 mps 746 mmHg 52%
14:00 +31°C° 0 mm 2 mps 746 mmHg 48%
15:00 +32°C° 0 mm 2 mps 746 mmHg 44%
16:00 +34°C° 0 mm 2 mps 746 mmHg 40%
17:00 +33°C° 0 mm 3 mps 746 mmHg 47%
18:00 +32°C° 0 mm 4 mps 745 mmHg 53%
19:00 +30°C° 0 mm 5 mps 745 mmHg 59%
20:00 +28°C° 0.9 mm 5 mps 746 mmHg 67%
21:00 +26°C° 0.9 mm 5 mps 746 mmHg 75%
22:00 +23°C° 0.9 mm 5 mps 746 mmHg 82%
23:00 +22°C° 1.4 mm 4 mps 746 mmHg 83%

18 July, Saturday

Time Temperature Precipitation Wind Pressure Humidity
00:00 +21°C° 1.4 mm 4 mps 746 mmHg 84%
01:00 +20°C° 1.4 mm 4 mps 746 mmHg 84%
02:00 +20°C° 0 mm 3 mps 746 mmHg 85%
03:00 +19°C° 0 mm 3 mps 746 mmHg 86%
04:00 +19°C° 0 mm 3 mps 746 mmHg 87%
05:00 +20°C° 0 mm 3 mps 746 mmHg 84%
06:00 +20°C° 0 mm 3 mps 746 mmHg 81%
07:00 +21°C° 0 mm 4 mps 746 mmHg 79%
08:00 +22°C° 0.1 mm 4 mps 746 mmHg 74%
09:00 +25°C° 0.1 mm 4 mps 747 mmHg 70%
10:00 +26°C° 0.1 mm 4 mps 747 mmHg 65%
11:00 +27°C° 0 mm 4 mps 747 mmHg 60%
12:00 +29°C° 0 mm 4 mps 747 mmHg 54%
13:00 +30°C° 0 mm 4 mps 746 mmHg 49%
14:00 +30°C° 0 mm 4 mps 746 mmHg 48%
15:00 +30°C° 0 mm 4 mps 746 mmHg 47%
16:00 +30°C° 0 mm 4 mps 746 mmHg 47%
17:00 +28°C° 0.1 mm 4 mps 746 mmHg 52%
18:00 +27°C° 0.1 mm 5 mps 746 mmHg 56%
19:00 +26°C° 0.1 mm 5 mps 746 mmHg 61%
20:00 +25°C° 0 mm 4 mps 746 mmHg 64%
21:00 +23°C° 0 mm 4 mps 747 mmHg 67%
22:00 +21°C° 0 mm 3 mps 747 mmHg 70%
23:00 +21°C° 0 mm 3 mps 747 mmHg 71%

19 July, Sunday

Time Temperature Precipitation Wind Pressure Humidity
00:00 +21°C° 0 mm 3 mps 747 mmHg 72%
01:00 +20°C° 0 mm 3 mps 747 mmHg 74%
02:00 +20°C° 0 mm 3 mps 747 mmHg 76%
03:00 +19°C° 0 mm 2 mps 747 mmHg 78%
04:00 +19°C° 0 mm 2 mps 747 mmHg 80%
05:00 +20°C° 0 mm 3 mps 747 mmHg 79%
06:00 +20°C° 0 mm 3 mps 747 mmHg 77%
07:00 +21°C° 0 mm 3 mps 747 mmHg 76%
08:00 +22°C° 0 mm 3 mps 747 mmHg 70%
09:00 +25°C° 0 mm 3 mps 747 mmHg 64%
10:00 +26°C° 0 mm 4 mps 747 mmHg 58%
11:00 +27°C° 0.1 mm 4 mps 747 mmHg 55%
12:00 +27°C° 0.1 mm 4 mps 747 mmHg 51%
13:00 +28°C° 0.1 mm 4 mps 747 mmHg 47%
14:00 +28°C° 0 mm 4 mps 746 mmHg 48%
15:00 +28°C° 0 mm 5 mps 746 mmHg 49%
16:00 +28°C° 0 mm 5 mps 746 mmHg 49%
17:00 +27°C° 0 mm 4 mps 746 mmHg 52%
18:00 +27°C° 0 mm 4 mps 745 mmHg 56%
19:00 +26°C° 0 mm 4 mps 745 mmHg 59%
20:00 +24°C° 0 mm 3 mps 745 mmHg 64%
21:00 +22°C° 0 mm 3 mps 745 mmHg 70%
22:00 +20°C° 0 mm 3 mps 745 mmHg 76%
23:00 +19°C° 0 mm 2 mps 745 mmHg 78%
Show more